TimeEST,TemperatureF,Dew PointF,Humidity,Sea Level PressureIn,VisibilityMPH,Wind Direction,Wind SpeedMPH,Gust SpeedMPH,PrecipitationIn,Events,Conditions,WindDirDegrees,DateUTC
12:26 AM,19.4,12.2,74,29.88,10.0,WNW,9.2,17.3,N/A,,Mostly Cloudy,290,2012-12-29 05:26:00
12:53 AM,21.0,14.0,74,29.92,10.0,NNW,9.2,-,N/A,,Overcast,330,2012-12-29 05:53:00
1:53 AM,21.0,12.9,71,29.93,10.0,WNW,10.4,-,N/A,,Overcast,300,2012-12-29 06:53:00
2:53 AM,19.9,12.9,74,29.93,10.0,West,12.7,18.4,N/A,,Scattered Clouds,280,2012-12-29 07:53:00
3:53 AM,19.9,12.9,74,29.93,10.0,West,8.1,-,N/A,,Clear,280,2012-12-29 08:53:00
4:53 AM,19.0,12.9,77,29.95,10.0,West,10.4,18.4,N/A,,Clear,280,2012-12-29 09:53:00
5:53 AM,19.0,14.0,81,29.94,10.0,Variable,5.8,-,N/A,,Clear,0,2012-12-29 10:53:00
7:53 AM,19.0,14.0,81,29.97,10.0,WNW,11.5,-,N/A,,Clear,290,2012-12-29 12:53:00
8:53 AM,19.9,14.0,78,29.98,10.0,WNW,9.2,-,N/A,,Clear,290,2012-12-29 13:53:00
9:53 AM,21.9,14.0,72,29.99,10.0,WNW,8.1,-,N/A,,Clear,290,2012-12-29 14:53:00
10:53 AM,21.9,14.0,72,29.96,10.0,WNW,4.6,-,N/A,,Clear,300,2012-12-29 15:53:00
11:53 AM,24.1,15.1,69,29.94,10.0,Variable,3.5,-,N/A,,Clear,0,2012-12-29 16:53:00
12:53 PM,25.0,15.1,66,29.91,9.0,Calm,Calm,-,N/A,,Clear,0,2012-12-29 17:53:00
1:53 PM,24.1,15.1,69,29.90,10.0,Calm,Calm,-,N/A,,Clear,0,2012-12-29 18:53:00
2:53 PM,25.0,15.1,66,29.89,10.0,Calm,Calm,-,N/A,,Clear,0,2012-12-29 19:53:00
3:53 PM,24.1,16.0,71,29.86,10.0,Calm,Calm,-,N/A,,Scattered Clouds,0,2012-12-29 20:53:00
4:53 PM,23.0,16.0,74,29.84,10.0,East,3.5,-,N/A,,Overcast,90,2012-12-29 21:53:00
5:53 PM,23.0,17.1,78,29.83,10.0,NE,3.5,-,N/A,,Overcast,50,2012-12-29 22:53:00
6:53 PM,21.9,17.1,82,29.82,10.0,Calm,Calm,-,N/A,,Overcast,0,2012-12-29 23:53:00
7:53 PM,21.0,16.0,81,29.80,10.0,ENE,3.5,-,N/A,,Overcast,60,2012-12-30 00:53:00
8:05 PM,21.2,15.8,80,29.76,10.0,ENE,5.8,-,N/A,,Overcast,60,2012-12-30 01:05:00
8:15 PM,21.2,17.6,86,29.75,10.0,ENE,5.8,-,N/A,,Overcast,60,2012-12-30 01:15:00
8:53 PM,21.0,16.0,81,29.73,10.0,NE,5.8,-,N/A,,Overcast,50,2012-12-30 01:53:00
9:53 PM,19.9,14.0,78,29.70,10.0,NNE,6.9,-,N/A,,Overcast,20,2012-12-30 02:53:00
10:53 PM,19.9,14.0,78,29.64,10.0,NNE,8.1,-,N/A,,Overcast,30,2012-12-30 03:53:00
11:53 PM,19.9,14.0,78,29.60,8.0,NNE,8.1,-,0.00,Snow,Light Snow,20,2012-12-30 04:53:00